[Iaude] MPEC H96: 2024 HV1 [a=1.77,e=0.44,i=9.0,H=25.9]
    mpec at cfa.harvard.edu 
    mpec at cfa.harvard.edu
       
    Mon Apr 29 19:59:34 EDT 2024
    
    
  
M.P.E.C. 2024-H96                                Issued 2024 April 29, 23:57 UT
     The Minor Planet Electronic Circulars contain information on unusual
         minor planets, routine data on comets and natural satellites,
         and occasional editorial announcements.  They are published
    on behalf of Division F of the International Astronomical Union by the
          Minor Planet Center, Smithsonian Astrophysical Observatory,
                          Cambridge, MA 02138, U.S.A.
			  
             Prepared using the Tamkin Foundation Computer Network
                              MPC at CFA.HARVARD.EDU
            URL https://www.minorplanetcenter.net/    ISSN 1523-6714
                                    2024 HV1                                    
Observations:
     K24H01V* C2024 04 28.25393112 32 40.505+23 44 59.51         20.45wXEH096F51
     K24H01V  C2024 04 28.26685412 32 36.818+23 43 47.68         20.68wXEH096F51
     K24H01V  C2024 04 28.27988212 32 33.014+23 42 34.66         20.69wXEH096F51
     K24H01V  C2024 04 28.29297212 32 29.141+23 41 20.46         20.79wXEH096F51
     K24H01V KC2024 04 28.39130712 31 50.038+23 30 09.04         20.81GVEH096I52
     K24H01V KC2024 04 28.39293912 31 49.573+23 29 58.45         20.19GVEH096I52
     K24H01V KC2024 04 28.39456912 31 49.188+23 29 47.47         20.52GVEH096I52
     K24H01V  C2024 04 28.39541812 31 57.656+23 31 09.07         20.51GVEH096F51
     K24H01V  C2024 04 28.39606512 31 57.456+23 31 05.16         20.33GVEH096F51
     K24H01V KC2024 04 28.39619212 31 48.745+23 29 37.72         20.58GVEH096I52
     K24H01V KC2024 04 28.88628512 30 15.71 +22 35 51.9          20.2 GXEH096I93
     K24H01V KC2024 04 28.89147912 30 14.04 +22 35 15.0          19.8 GXEH096I93
     K24H01V KC2024 04 28.89758212 30 12.12 +22 34 32.7          20.3 GXEH096I93
     K24H01V KB2024 04 28.90014812 30 11.53 +22 34 18.8          19.6 GXEH096958
     K24H01V KB2024 04 28.90481112 30 09.98 +22 33 44.1          19.8 GXEH096958
     K24H01V KB2024 04 28.90948112 30 08.56 +22 33 11.0          19.7 GXEH096958
     K24H01V IC2024 04 28.94761812 29 53.01 +22 28 27.0          20.0 GVEH096L01
     K24H01V KC2024 04 28.94762 12 29 53.21 +22 28 23.7          20.0 GqEH096C75
     K24H01V KC2024 04 28.94764 12 29 53.20 +22 28 23.5                qEH096C75
     K24H01V KC2024 04 28.94768 12 29 53.19 +22 28 23.2                qEH096C75
     K24H01V KC2024 04 28.94981912 29 52.32 +22 28 10.4          20.2 GVEH096L01
     K24H01V KC2024 04 28.95201912 29 51.63 +22 27 54.6          20.2 GVEH096L01
     K24H01V KC2024 04 28.95450912 29 50.87 +22 27 36.4          20.1 GVEH096L01
     K24H01V KC2024 04 28.95744012 29 49.94 +22 27 14.4          20.0 GVEH096L01
     K24H01V KB2024 04 29.73441 12 26 17.70 +20 41 36.6          19.7 GVEH096P13
     K24H01V KB2024 04 29.74760 12 26 12.97 +20 39 28.9          19.6 GVEH096P13
     K24H01V KB2024 04 29.80172 12 26 13.92 +20 31 05.7          19.9 GXEH096M45
     K24H01V KB2024 04 29.80705 12 26 11.88 +20 30 16.8          20.0 GXEH096M45
     K24H01V KC2024 04 29.87333 12 25 49.50 +20 19 51.8          19.7 GVEH096104
     K24H01V KC2024 04 29.88087 12 25 46.42 +20 18 38.1          19.8 GVEH096104
     K24H01V KC2024 04 29.88841 12 25 43.37 +20 17 25.3          19.5 GVEH096104
Observer details:
104 San Marcello Pistoiese.  Observers P. Bacci, M. Maestripieri.  Measurer P.
    Bacci.  0.60-m f/4.0 reflector + CCD.
958 Observatoire de Dax.  Observer P. Dupouy.  0.50-m f/4.5 Reflector + CMO.
C75 Whitestar Observatory, Borgobello.  Observer T. Gregor.  Measurers V.
    Gonano, T. Gregor.  0.35-m f/5.7 Schmidt-Cassegrain + CCD.
F51 Pan-STARRS 1, Haleakala.  Observers J. Herman, T. Lowe, P. Minguez, A.
    Schultz, I. Smith.  Measurers K. Chambers, T. de Boer, J. Fairlamb, H.
    Gao, M. Huber, C.-C. Lin, E. Magnier, Y. Ramanjooloo, R. Wainscoat, R.
    Weryk.  1.8-m Ritchey-Chretien + CCD.
I52 Steward Observatory, Mt. Lemmon Station.  Observer R. A. Kowalski.
    Measurers T. Beuden, V. F. Carvajal, D. Fay, J. B. Fazekas, D. C. Fuls, A.
    R. Gibbs, A. D. Grauer, H. Groeller, J. K. Hogan, R. A. Kowalski, S. M.
    Larson, G. J. Leonard, D. Rankin, R. L. Seaman, F. C. Shelly, K. W.
    Wierzchos.  1.0-m prime focus + CCD.
I93 St Pardon de Conques.  Observer F. Losse.  0.40-m f/3.7 reflector + CCD.
L01 Visnjan Observatory, Tican.  Observer K. Korlevic.  1.0-m f/2.9 reflector
    + CCD.
M45 Starhopper Observatory, Sfantu Gheorghe.  Observer F. Ursache.  0.41-m
    f/7.5 reflector + CMO.
P13 Baihuashan Observatory, Beijing.  Observers Z. Wang, B. Liu.  Measurer Z.
    Wang.  0.28-m f/2.2 reflector + CMO.
Orbital elements:
2024 HV1                                                 Earth MOID = 0.0073 AU
Epoch 2024 Mar. 31.0 TT = JDT 2460400.5                 Veres                   
M 337.15933              (2000.0)            P               Q                  
n   0.41932659     Peri.  205.05464     -0.38694083     +0.91603860             
a   1.7678054      Node    42.39981     -0.81744448     -0.28777681             
e   0.4407314      Incl.    9.00948     -0.42668643     -0.27938824             
P   2.35           H   25.96          G   0.15           U   7                  
Residuals in seconds of arc
240428 F51  0.1-  0.3+    240428 I93  0.1-  0.6+    240428 L01  0.5+  0.3+
240428 F51  0.0   0.2+    240428 I93  0.4-  0.1-    240428 L01  0.3+  0.0
240428 F51  0.1-  0.2+    240428 I93  0.1-  0.3+    240429 P13  0.5+  0.3+
240428 F51  0.1-  0.2+    240428 958  0.1+  0.9+    240429 P13  0.1+  0.0
240428 I52  0.3+  0.2-    240428 958  0.7-  1.0-    240429 M45  0.2+  0.4-
240428 I52  0.3-  0.1-    240428 958  0.5+  1.1-    240429 M45  0.8+  0.6+
240428 I52  0.2+  0.4-    240428 L01  0.0   0.0     240429 104  0.3+  0.3+
240428 F51  0.1+  0.1+    240428 C75  0.1+  0.2+    240429 104  0.3-  0.4-
240428 F51  0.1+  0.2+    240428 L01  0.1+  0.4-    240429 104  0.3-  0.1+
240428 I52  0.2-  0.4+    240428 L01  0.2+  0.1+
Ephemeris:
2024 HV1                 a,e,i = 1.77, 0.44, 9                   q = 0.9887
Date    TT    R. A. (2000) Decl.     Delta      r    Elong.  Phase     V
2024 03 30    12 59 37.8 +29 07 14   0.1926  1.1643   146.6    28.2    24.0
...
2024 04 14    12 52 43.7 +30 26 51   0.1101  1.0887   139.2    37.0    22.9
...
2024 04 22    12 45 12.9 +28 58 40   0.06876 1.0550   135.1    42.2    21.9
...
2024 04 28    12 33 21.0 +24 09 02   0.03847 1.0336   133.4    45.0    20.7
2024 04 29    12 29 46.1 +22 24 02   0.03351 1.0304   133.5    45.2    20.4
2024 04 30    12 25 09.4 +20 01 10   0.02861 1.0273   133.7    45.2    20.0
...
2024 05 06    08 38 31.1 -61 59 59   0.0092181.0109   102.9    76.6    18.5
...
2024 05 14    01 26 05.5 -45 17 22   0.04461 0.9957    69.3   108.3    23.3
...
2024 05 29    01 10 11.0 -38 09 35   0.1181  0.9897    75.1    98.3    24.8
M. P. C. Staff               (C) Copyright 2024 MPC           M.P.E.C. 2024-H96
    
    
More information about the Iaude
mailing list